Find Starlink 37180

NORAD ID: 68333 Int'l Des: 2026-059 Owner: SPXS Country: US Constellation: starlink operational
LEOCIRCULAR

Live Position

Loading 3D Globe...

About Starlink 37180

Description loading...

Upcoming Passes

Passes for default location (London). Set your location on the main map for personalized predictions.

Altitude History

Loading altitude history...

Two-Line Element Set

1 68333U 26059N 26127.17150997 .00055595 00000-0 99983-3 0 9992
2 68333 53.1585 75.6404 0001326 67.4462 292.6688 15.49329529 7141
Epoch: May 7, 2026 • Age: 5 hours

Current Status

Altitude 424.3 km
Velocity 7.66 km/s
Sub-Earth Point 53.29°N, 160.07°E
Launch Date Mar 22, 2026
Age 0.1 years
Type internet

Technical Details

Classification Payload
Mass 575.00 kg
Dry Mass 530.00 kg
Total Mass 575.00 kg
Length 0.30 m
Diameter 4.10 m
Span 29.00 m
Shape Box + pan
Manufacturer SPXS
Bus Type Starlink V2MO
Phase Status In Orbit
Owner/State SPXS/US

Most Searched